Погода в Хролине

Украина / Хмельницкая область     50°09′38″N   27°15′08″E
темп.,
°C
ветер,
м/с
пор.,
м/с
влажн.,
%
обл.,
%
осадки,
мм/ч
давл.,
гПа
погр.,
м
27 июля, вт
вт2700:00+18ююв388420 0.2 1018152
03:00+17ююв398154 0.3 1018164
06:00+17ююв311817 0.2 1017220
09:00+20ю41280100 2.4 1017438
12:00+21ююв5983100 4.3 1017466
15:00+29ю465029 4.6 10151430
18:00+28ю5659100 0.0 1014907
21:00+19ю3694100 12.8 101698
28 июля, ср
ср2800:00+18ю3796100 2.4 1015137
03:00+18юз379633 3.3 1014132
06:00+18зсз259539 0.1 101493
09:00+22зсз348226 0.1 1015294
12:00+27зсз3457100 0.0 10151219
15:00+29зсз23445 0.0 10141452
18:00+29юз13460 0.0 10121419
21:00+21юз51085100 0.8 1014226
29 июля, чт
чт2900:00+19в2394100 0.6 101264
03:00+18ю499012 0.8 1011156
06:00+18юз412940 0.6 1011290
09:00+22зсз36815 0.6 1011369
12:00+26зсз45632 0.0 1012992
15:00+28зсз465517 0.0 10111654
18:00+26сз45615 0.0 1011840
21:00+21з398399 0.3 1012172
30 июля, пт
пт3000:00+19зсз359025 0.0 101295
03:00+19зсз228895 0.0 101333
06:00+20зсз238210 0.0 101357
09:00+23з11675 0.0 1013293
12:00+27зюз22470 0.0 10121510
15:00+29зюз234228 0.0 10112010
18:00+29ююз2246100 0.0 10091924
21:00+18зсз71397100 6.5 1010395
31 июля, сб
сб3100:00+19юв1185100 4.9 101011
03:00+17зсз22940 4.9 101031
06:00+16зсз12940 0.0 101016
09:00+21з22804 0.0 1010318
12:00+26зсз22590 0.0 1010982
15:00+28сз225023 0.0 10091417
18:00+28зсз2250100 0.0 10081310
21:00+22ссз117496 0.0 100911